Location: Black Swamp Observatory
(41.3920°N, 84.1250°W)
Time: 19:42:02
(UTC-04:00)

Amateur Radio Satellites - All Passes

Search period start: 03 July 2015 19:12
Search period end: 04 July 2015 19:12
Location: Black Swamp Observatory, 41.3920°N, 84.1250°W

Satellite Date Start Highest point End Downlink Frequencies (MHz)
Time Altitude Azimuth
HO-68 03 Jul 19:21:50 19:25:01 14° 52° (NE) 19:28:35 435.675
CUSAT 1 03 Jul 19:21:53 19:23:35 15° 71° (ENE) 19:25:17 437.405
CUBESAT XI-V 03 Jul 19:23:27 19:27:48 37° 97° (E) 19:32:07 437.345
STRAND 1 03 Jul 19:54:13 19:58:29 27° 94° (E) 20:02:49 437.568
GOMX 1 03 Jul 19:54:59 19:58:31 20° 67° (ENE) 20:02:03 467.674
SO-50 03 Jul 19:58:29 20:01:32 16° 323° (NW) 20:04:30 436.795
PRISM 03 Jul 20:03:28 20:07:04 28° 96° (E) 20:10:41 437.425
CANX-2 03 Jul 20:04:06 20:05:16 11° 64° (ENE) 20:06:39 2200.000
O/OREOS (USA 219) 03 Jul 20:05:37 20:06:37 10° 261° (W) 20:07:20 437.305
CUTE-I 03 Jul 20:09:41 20:14:07 25° 267° (W) 20:18:28 437.470
BRITE-PL 03 Jul 20:12:43 20:17:57 47° 73° (ENE) 20:22:55 437.365/2234.400
DANDE 03 Jul 20:18:17 20:21:11 75° 81° (E) 20:23:46 436.750
DOVE 4 03 Jul 20:42:51 20:47:12 34° 71° (ENE) 20:51:24 437.250
Cubesat XI-IV 03 Jul 20:46:23 20:48:34 12° 273° (W) 20:50:24 437.490
GONETS M04 03 Jul 20:46:26 20:54:50 51° 75° (ENE) 21:03:14
SEEDS 03 Jul 20:48:19 20:51:40 24° 69° (ENE) 20:55:07 437.485
CUBESAT XI-V 03 Jul 21:01:19 21:05:02 23° 293° (WNW) 21:08:38 437.345
AAUSAT CUBESAT 2 03 Jul 21:01:54 21:05:09 23° 69° (ENE) 21:08:30 437.432
HO-68 03 Jul 21:04:34 21:11:38 69° 71° (ENE) 21:18:46 435.675
Oscar 11 03 Jul 21:12:26 21:14:50 15° 65° (ENE) 21:17:23 145.826/435.025
M-CUBED/EXP-1 PRIME 03 Jul 21:14:27 21:16:07 12° 95° (E) 21:18:04 437.505
DELFI C3 03 Jul 21:25:22 21:27:12 13° 65° (ENE) 21:29:13 145.870
COMPASS 1 03 Jul 21:26:20 21:30:21 51° 74° (ENE) 21:34:25 437.405
GOMX 1 03 Jul 21:31:18 21:36:22 51° 261° (W) 21:41:09 467.674
STRAND 1 03 Jul 21:33:03 21:37:47 37° 291° (WNW) 21:42:27 437.568
CUTE 1.7 + AOD 2 03 Jul 21:33:14 21:37:26 84° 258° (WSW) 21:41:41 437.475
CINEMA 3 03 Jul 21:35:15 21:39:39 52° 74° (ENE) 21:43:54 145.822/145.860
Cosmos 2499 03 Jul 21:35:57 21:41:41 22° 65° (ENE) 21:48:00 435.465 / 435.565
CANX-2 03 Jul 21:36:30 21:40:40 69° 259° (W) 21:44:54 2200.000
FUNcube-1 03 Jul 21:38:03 21:40:29 16° 67° (ENE) 21:43:04 145.935
PRISM 03 Jul 21:38:57 21:42:26 25° 292° (WNW) 21:45:49 437.425
UWE-3 03 Jul 21:47:00 21:50:28 26° 70° (ENE) 21:53:58 435.000/436.395/437.385
BRITE-PL 03 Jul 21:52:17 21:56:39 23° 268° (W) 22:00:41 437.365/2234.400
AUBIESAT-1 03 Jul 22:13:41 22:17:46 47° 105° (ESE) 22:22:08 437.475
DOVE 4 03 Jul 22:20:54 22:25:01 25° 266° (W) 22:28:52 437.250
DX 1 03 Jul 22:22:24 22:25:32 20° 66° (ENE) 22:28:47 434.975-435.025
SEEDS 03 Jul 22:23:46 22:27:23 27° 265° (W) 22:30:58 437.485
CUBEBUG 2 03 Jul 22:29:34 22:33:55 83° 260° (W) 22:38:08 437.445
ZACube-1 03 Jul 22:35:42 22:39:53 69° 76° (ENE) 22:44:03 437.345
AAUSAT CUBESAT 2 03 Jul 22:37:02 22:40:39 28° 265° (W) 22:44:15 437.432
GONETS M04 03 Jul 22:43:46 22:51:26 35° 274° (W) 22:58:54
UKube-1 03 Jul 22:43:55 22:47:41 30° 69° (ENE) 22:51:31 .
Oscar 11 03 Jul 22:46:28 22:50:38 51° 261° (W) 22:54:51 145.826/435.025
M-CUBED/EXP-1 PRIME 03 Jul 22:47:06 22:51:15 65° 290° (WNW) 22:55:42 437.505
HO-68 03 Jul 22:54:37 23:00:04 22° 269° (W) 23:05:14 435.675
AISAT 03 Jul 22:55:51 22:59:29 25° 68° (ENE) 23:03:12 437.250
DELFI C3 03 Jul 22:58:00 23:01:54 51° 261° (W) 23:05:50 145.870
HUMSAT D 03 Jul 23:01:37 23:05:39 57° 74° (ENE) 23:09:40 437.325/437.525
COMPASS 1 03 Jul 23:04:22 23:06:24 13° 271° (W) 23:08:13 437.405
TIGRISAT 03 Jul 23:06:00 23:08:00 13° 90° (E) 23:10:16 435.000
50 SAT 03 Jul 23:08:52 23:12:18 32° 72° (ENE) 23:15:46 437.505
FUNcube-1 03 Jul 23:12:27 23:16:31 45° 261° (W) 23:20:31 145.935
CINEMA 3 03 Jul 23:14:38 23:17:11 14° 270° (W) 23:19:29 145.822/145.860
CUBEBUG 1 03 Jul 23:16:39 23:20:02 22° 68° (ENE) 23:23:31 437.445
UWE-3 03 Jul 23:23:19 23:26:58 26° 265° (W) 23:30:30 435.000/436.395/437.385
ESTCUBE 1 03 Jul 23:24:29 23:28:27 32° 70° (ENE) 23:32:31 437.505/2401.250
Cosmos 2499 03 Jul 23:27:51 23:35:39 75° 265° (W) 23:44:04 435.465 / 435.565
POLYITAN 1 03 Jul 23:33:25 23:33:30 10° 88° (E) 23:33:52 437.675
UNISAT 6 03 Jul 23:43:47 23:47:49 35° 97° (E) 23:51:57 437.425
VELOX 1 03 Jul 23:44:27 23:48:56 80° 74° (ENE) 23:53:25 145.980
AUBIESAT-1 03 Jul 23:49:21 23:52:15 18° 298° (WNW) 23:55:10 437.475
DX 1 03 Jul 23:57:26 00:01:33 39° 262° (W) 00:05:40 434.975-435.025
PCSat 03 Jul 23:57:33 23:58:51 11° 33° (NNE) 00:00:22 145.827
QB50P2 04 Jul 00:00:30 00:03:45 22° 93° (E) 00:07:06 145.880/145.840
POPSAT HIP 1 04 Jul 00:01:28 00:04:41 22° 93° (E) 00:08:00 437.405
UKube-1 04 Jul 00:20:15 00:23:50 24° 265° (W) 00:27:22 .
SPROUT 04 Jul 00:21:18 00:25:02 30° 70° (ENE) 00:28:51 437.525
ANTELSAT 04 Jul 00:28:04 00:32:27 74° 284° (WNW) 00:36:54 437.575/2403.000
AISAT 04 Jul 00:31:58 00:35:58 31° 264° (W) 00:39:55 437.250
QB50P1 04 Jul 00:39:54 00:44:05 60° 101° (E) 00:48:13 145.935-145.965
HUMSAT D 04 Jul 00:40:26 00:41:49 11° 271° (W) 00:42:59 437.325/437.525
TIGRISAT 04 Jul 00:40:52 00:45:08 56° 287° (WNW) 00:49:29 435.000
50 SAT 04 Jul 00:44:28 00:47:03 17° 268° (W) 00:49:32 437.505
CUBEBUG 1 04 Jul 00:52:08 00:56:13 35° 263° (W) 01:00:17 437.445
NANOSAT C BR1 04 Jul 00:54:24 00:58:37 88° 96° (E) 01:02:49 145.865
ESTCUBE 1 04 Jul 01:01:35 01:05:22 25° 266° (W) 01:09:05 437.505/2401.250
DUCHIFAT 1 04 Jul 01:01:38 01:05:51 79° 284° (WNW) 01:10:01 145.980
TISAT 1 04 Jul 01:05:27 01:09:38 62° 75° (ENE) 01:13:50 437.305
POLYITAN 1 04 Jul 01:05:45 01:09:56 67° 286° (WNW) 01:14:07 437.675
SO-50 04 Jul 01:07:42 01:10:37 16° 36° (NE) 01:13:39 436.795
BEESAT 04 Jul 01:11:59 01:14:25 14° 62° (ENE) 01:17:02 436.000
RS-15 04 Jul 01:16:27 01:20:41 14° 98° (E) 01:25:57 29.354- 29.394
UNISAT 6 04 Jul 01:21:03 01:24:26 21° 292° (WNW) 01:27:44 437.425
BUGSAT 1 04 Jul 01:22:04 01:26:08 69° 285° (WNW) 01:30:07 437.445
Cosmos 2499 04 Jul 01:24:17 01:27:50 13° 281° (W) 01:30:50 435.465 / 435.565
SWISSCUBE 04 Jul 01:26:12 01:29:44 21° 66° (ENE) 01:33:23 437.505
ITUPSAT 1 04 Jul 01:31:08 01:34:41 22° 66° (ENE) 01:38:21 437.325
QB50P2 04 Jul 01:35:58 01:39:42 31° 290° (WNW) 01:43:23 145.880/145.840
POPSAT HIP 1 04 Jul 01:36:53 01:40:38 31° 290° (WNW) 01:44:18 437.405
PCSat 04 Jul 01:38:21 01:43:39 53° 55° (NE) 01:48:57 145.827
SPROUT 04 Jul 01:57:38 02:01:09 23° 266° (W) 02:04:36 437.525
QB50P1 04 Jul 02:17:35 02:19:29 13° 296° (WNW) 02:21:12 145.935-145.965
Oscar 19 04 Jul 02:25:20 02:29:46 29° 95° (E) 02:34:15 437.125/150
KKS-1 04 Jul 02:36:51 02:39:40 17° 65° (ENE) 02:42:36 437.445
Cosmos 2491 04 Jul 02:41:05 02:49:12 41° 72° (ENE) 02:57:21 435.465 / 435.565
TISAT 1 04 Jul 02:44:32 02:45:54 11° 272° (W) 02:47:00 437.305
SO-50 04 Jul 02:47:00 02:52:00 83° 59° (ENE) 02:56:53 436.795
BEESAT 04 Jul 02:47:00 02:51:44 68° 258° (WSW) 02:56:32 436.000
AIST 1 04 Jul 03:00:18 03:03:44 23° 72° (ENE) 03:07:14
SWISSCUBE 04 Jul 03:02:47 03:07:20 43° 262° (W) 03:11:54 437.505
ITUPSAT 1 04 Jul 03:07:46 03:12:19 42° 262° (W) 03:16:53 437.325
YUBILEINY 04 Jul 03:16:40 03:23:31 28° 84° (E) 03:30:40 435.215
RS-15 04 Jul 03:20:27 03:31:10 70° 117° (ESE) 03:42:18 29.354- 29.394
PCSat 04 Jul 03:22:35 03:26:45 22° 252° (WSW) 03:30:44 145.827
STARS 04 Jul 03:29:10 03:33:09 35° 70° (ENE) 03:37:11 437.465
JAS-2 04 Jul 03:40:25 03:44:27 17° 89° (E) 03:49:07 435.910
AO-7 04 Jul 03:58:22 04:01:57 14° 85° (E) 04:06:11 29.400- 29.500
Gurwin Techsat 1B 04 Jul 04:04:30 04:09:51 75° 102° (ESE) 04:15:09 435.225
Oscar 19 04 Jul 04:04:33 04:09:09 33° 291° (WNW) 04:13:40 437.125/150
KKS-1 04 Jul 04:11:38 04:15:58 48° 261° (W) 04:20:17 437.445
ITAMSAT 1 04 Jul 04:14:12 04:19:28 86° 101° (E) 04:24:42 435.822/435.867
MOZHAYETS 4 04 Jul 04:25:21 04:28:56 24° 68° (ENE) 04:32:39
SO-50 04 Jul 04:29:55 04:31:55 12° 252° (WSW) 04:33:39 436.795
AIST 1 04 Jul 04:37:37 04:41:26 29° 269° (W) 04:45:09
Cosmos 2491 04 Jul 04:38:01 04:46:09 44° 272° (W) 04:54:08 435.465 / 435.565
HORYU 2 04 Jul 05:03:36 05:07:48 39° 98° (E) 05:12:01 437.375
STARS 04 Jul 05:06:19 05:09:43 21° 267° (W) 05:13:01 437.465
YUBILEINY 04 Jul 05:11:14 05:19:50 62° 283° (WNW) 05:28:26 435.215
JAS-2 04 Jul 05:23:34 05:30:10 85° 285° (WNW) 05:37:35 435.910
RS-15 04 Jul 05:34:20 05:44:30 40° 323° (NW) 05:54:56 29.354- 29.394
Cosmos 2504 04 Jul 05:44:53 05:49:57 23° 84° (E) 05:55:15 435.465 / 435.565
Gurwin Techsat 1B 04 Jul 05:46:08 05:49:16 16° 299° (WNW) 05:52:11 435.225
AO-7 04 Jul 05:47:56 05:56:21 76° 105° (ESE) 06:04:42 29.400- 29.500
ITAMSAT 1 04 Jul 05:55:52 05:58:19 13° 300° (WNW) 06:00:31 435.822/435.867
MOZHAYETS 4 04 Jul 06:01:50 06:06:01 34° 264° (W) 06:10:13
CUBESAT XI-V 04 Jul 06:26:46 06:31:04 37° 71° (ENE) 06:35:26 437.345
HORYU 2 04 Jul 06:40:53 06:44:12 20° 294° (WNW) 06:47:25 437.375
CUTE-I 04 Jul 06:47:02 06:50:12 16° 89° (E) 06:53:34 437.470
PRISM 04 Jul 06:53:56 06:57:05 22° 67° (ENE) 07:00:21 437.425
STRAND 1 04 Jul 07:09:59 07:14:43 39° 69° (ENE) 07:19:31 437.568
JAS-2 04 Jul 07:10:40 07:14:38 16° 299° (WNW) 07:18:32 435.910
YUBILEINY 04 Jul 07:15:50 07:19:02 12° 307° (NW) 07:21:34 435.215
Cubesat XI-IV 04 Jul 07:19:54 07:24:43 33° 96° (E) 07:29:32 437.490
BEESAT 3 04 Jul 07:32:25 07:35:32 22° 113° (ESE) 07:38:45 437.485
Cosmos 2504 04 Jul 07:34:53 07:41:41 57° 282° (WNW) 07:48:29 435.465 / 435.565
AO-7 04 Jul 07:41:46 07:48:27 27° 304° (NW) 07:54:54 29.400- 29.500
BEESAT 2 04 Jul 07:43:54 07:47:06 23° 113° (ESE) 07:50:24 435.950
DANDE 04 Jul 07:46:06 07:50:06 17° 91° (E) 07:53:55 436.750
RS-15 04 Jul 07:53:08 08:01:16 22° 356° (N) 08:09:37 29.354- 29.394
M-CUBED/EXP-1 PRIME 04 Jul 08:03:48 08:05:06 12° 60° (ENE) 08:06:32 437.505
CUBESAT XI-V 04 Jul 08:04:52 08:08:38 23° 268° (W) 08:12:19 437.345
VERMONT LUNAR 04 Jul 08:15:16 08:17:36 20° 153° (SSE) 08:19:57 437.305
BRITE-PL 04 Jul 08:20:27 08:21:28 11° 86° (E) 08:22:45 437.365/2234.400
CUTE-I 04 Jul 08:25:30 08:30:50 64° 287° (WNW) 08:36:06 437.470
CUSAT 1 04 Jul 08:25:32 08:31:46 45° 97° (E) 08:36:38 437.405
PRISM 04 Jul 08:28:35 08:32:22 32° 263° (W) 08:36:08 437.425
O/OREOS (USA 219) 04 Jul 08:35:23 08:39:50 86° 114° (ESE) 08:44:20 437.305
HO-68 04 Jul 08:36:05 08:37:36 11° 84° (E) 08:39:44 435.675
STRAND 1 04 Jul 08:49:46 08:54:03 25° 266° (W) 08:58:15 437.568
AIST 2 04 Jul 08:59:08 09:03:01 36° 116° (ESE) 09:06:58 435.215
Cubesat XI-IV 04 Jul 09:00:02 09:04:47 32° 293° (WNW) 09:09:28 437.490
AUBIESAT-1 04 Jul 09:02:19 09:05:33 54° 69° (ENE) 09:08:56 437.475
BEESAT 3 04 Jul 09:09:31 09:13:18 35° 310° (NW) 09:17:06 437.485
CUTE 1.7 + AOD 2 04 Jul 09:19:24 09:22:07 17° 91° (E) 09:25:00 437.475
BEESAT 2 04 Jul 09:21:13 09:25:01 34° 310° (NW) 09:28:49 435.950
CANX-2 04 Jul 09:22:22 09:25:31 20° 92° (E) 09:28:47 2200.000
ISS 04 Jul 09:23:15 09:26:28 80° 146° (SE) 09:29:44 145.825
DANDE 04 Jul 09:25:44 09:33:09 79° 280° (W) 09:38:48 436.750
CINEMA 3 04 Jul 09:32:22 09:33:15 11° 88° (E) 09:34:23 145.822/145.860
GOMX 1 04 Jul 09:33:27 09:37:28 42° 98° (E) 09:41:25 467.674
M-CUBED/EXP-1 PRIME 04 Jul 09:36:30 09:39:37 39° 257° (WSW) 09:42:50 437.505
GONETS M04 04 Jul 09:47:07 09:55:37 58° 92° (E) 10:04:10
VERMONT LUNAR 04 Jul 09:51:06 09:54:11 60° 170° (S) 09:57:17 437.305
BRITE-PL 04 Jul 09:56:21 10:00:38 59° 286° (WNW) 10:04:42 437.365/2234.400
PHONESAT 2.4 04 Jul 10:04:08 10:07:03 26° 156° (SSE) 10:10:00 2401.200-2431.200
TIGRISAT 04 Jul 10:05:56 10:07:35 12° 64° (ENE) 10:09:27 435.000
SEEDS 04 Jul 10:07:13 10:11:20 46° 98° (E) 10:15:27 437.485
RS-15 04 Jul 10:08:47 10:18:40 32° 30° (NNE) 10:29:07 29.354- 29.394
CUSAT 1 04 Jul 10:09:13 10:14:22 25° 286° (WNW) 10:18:28 437.405
Cosmos 2499 04 Jul 10:16:48 10:19:48 14° 80° (E) 10:23:16 435.465 / 435.565
O/OREOS (USA 219) 04 Jul 10:18:28 10:20:00 11° 311° (NW) 10:21:20 437.305
DOVE 4 04 Jul 10:18:59 10:23:10 87° 102° (ESE) 10:27:19 437.250
AAUSAT CUBESAT 2 04 Jul 10:19:11 10:23:12 42° 98° (E) 10:27:13 437.432
HO-68 04 Jul 10:19:35 10:26:45 72° 104° (ESE) 10:33:55 435.675
CUBEBUG 2 04 Jul 10:21:11 10:24:09 19° 93° (E) 10:27:16 437.445
ZACube-1 04 Jul 10:25:46 10:27:34 13° 89° (E) 10:29:38 437.345
Oscar 11 04 Jul 10:33:53 10:37:36 28° 95° (E) 10:41:22 145.826/435.025
DELFI C3 04 Jul 10:37:32 10:40:34 20° 93° (E) 10:43:40 145.870
AIST 2 04 Jul 10:38:06 10:41:41 25° 314° (NW) 10:45:15 435.215
UNISAT 6 04 Jul 10:43:10 10:46:57 31° 70° (ENE) 10:50:46 437.425
COMPASS 1 04 Jul 10:44:54 10:49:09 82° 284° (WNW) 10:53:23 437.405
QB50P2 04 Jul 10:54:03 10:56:53 18° 67° (ENE) 10:59:52 145.880/145.840
CUTE 1.7 + AOD 2 04 Jul 10:54:13 10:58:16 41° 288° (WNW) 11:02:18 437.475
POPSAT HIP 1 04 Jul 10:54:53 10:57:42 18° 66° (ENE) 11:00:38 437.405
CANX-2 04 Jul 10:57:39 11:01:34 34° 289° (WNW) 11:05:26 2200.000
FUNcube-1 04 Jul 11:00:32 11:04:15 30° 96° (E) 11:08:05 145.935
ISS 04 Jul 11:00:38 11:03:12 21° 341° (NNW) 11:05:44 145.825
CINEMA 3 04 Jul 11:06:49 11:10:56 61° 285° (WNW) 11:15:06 145.822/145.860
UWE-3 04 Jul 11:12:00 11:16:09 55° 100° (E) 11:20:23 435.000/436.395/437.385
GOMX 1 04 Jul 11:12:41 11:15:19 16° 294° (WNW) 11:17:45 467.674
DANDE 04 Jul 11:14:08 11:16:48 12° 294° (WNW) 11:18:52 436.750
ANTELSAT 04 Jul 11:27:07 11:31:24 84° 257° (WSW) 11:35:42 437.575/2403.000
VERMONT LUNAR 04 Jul 11:27:54 11:31:02 73° 187° (S) 11:34:11 437.305
QB50P1 04 Jul 11:32:32 11:36:34 45° 73° (ENE) 11:40:39 145.935-145.965
VELOX 1 04 Jul 11:36:21 11:38:46 15° 90° (E) 11:41:22 145.980
TIGRISAT 04 Jul 11:39:39 11:43:55 62° 260° (W) 11:48:09 435.000
PHONESAT 2.4 04 Jul 11:41:23 11:44:48 69° 171° (S) 11:48:15 2401.200-2431.200
SEEDS 04 Jul 11:44:06 11:46:47 16° 294° (WNW) 11:49:21 437.485
GONETS M04 04 Jul 11:45:21 11:53:02 31° 292° (WNW) 12:00:31
DX 1 04 Jul 11:45:36 11:49:32 33° 97° (E) 11:53:29 434.975-435.025
NANOSAT C BR1 04 Jul 11:46:40 11:50:52 65° 75° (ENE) 11:55:04 145.865
DUCHIFAT 1 04 Jul 11:53:40 11:57:54 77° 76° (ENE) 12:02:07 145.980
AAUSAT CUBESAT 2 04 Jul 11:55:42 11:58:30 17° 293° (WNW) 12:01:11 437.432
CUBEBUG 2 04 Jul 11:57:08 12:00:59 35° 288° (WNW) 12:04:53 437.445
POLYITAN 1 04 Jul 11:58:26 12:02:41 89° 256° (WSW) 12:06:57 437.675
ZACube-1 04 Jul 12:00:12 12:04:19 53° 286° (WNW) 12:08:29 437.345
Cosmos 2499 04 Jul 12:04:54 12:11:58 90° 275° (W) 12:19:09 435.465 / 435.565
UKube-1 04 Jul 12:06:40 12:10:55 53° 100° (E) 12:15:08 .
HO-68 04 Jul 12:08:25 12:13:55 24° 301° (WNW) 12:19:12 435.675
Oscar 11 04 Jul 12:10:03 12:13:43 26° 291° (WNW) 12:17:19 145.826/435.025
BUGSAT 1 04 Jul 12:11:37 12:15:51 81° 76° (ENE) 12:20:05 437.445
DELFI C3 04 Jul 12:12:05 12:15:43 31° 289° (WNW) 12:19:18 145.870
50 SAT 04 Jul 12:18:26 12:22:14 50° 99° (E) 12:26:03 437.505
UNISAT 6 04 Jul 12:20:25 12:23:48 22° 266° (W) 12:27:06 437.425
HUMSAT D 04 Jul 12:20:50 12:24:59 74° 285° (WNW) 12:29:11 437.325/437.525
RS-15 04 Jul 12:21:21 12:33:08 84° 57° (ENE) 12:45:22 29.354- 29.394
AISAT 04 Jul 12:21:59 12:26:16 48° 99° (E) 12:30:31 437.250
QB50P2 04 Jul 12:28:30 12:32:31 40° 262° (W) 12:36:31 145.880/145.840
POPSAT HIP 1 04 Jul 12:29:17 12:33:18 40° 262° (W) 12:37:19 437.405
FUNcube-1 04 Jul 12:37:07 12:40:29 23° 291° (WNW) 12:43:46 145.935
ISS 04 Jul 12:38:46 12:40:30 14° 1° (N) 12:42:13 145.825
CUBEBUG 1 04 Jul 12:40:38 12:44:45 41° 98° (E) 12:48:51 437.445
UWE-3 04 Jul 12:50:09 12:52:18 14° 295° (WNW) 12:54:19 435.000/436.395/437.385
ESTCUBE 1 04 Jul 12:53:10 12:57:42 68° 101° (ESE) 13:02:13 437.505/2401.250
VERMONT LUNAR 04 Jul 13:04:56 13:07:46 30° 202° (SSW) 13:10:36 437.305
QB50P1 04 Jul 13:10:07 13:12:44 15° 270° (W) 13:15:09 145.935-145.965
VELOX 1 04 Jul 13:11:24 13:15:41 50° 287° (WNW) 13:19:56 145.980
PHONESAT 2.4 04 Jul 13:19:19 13:22:46 69° 188° (S) 13:26:13 2401.200-2431.200
DX 1 04 Jul 13:22:12 13:25:37 22° 293° (WNW) 13:28:55 434.975-435.025
NANOSAT C BR1 04 Jul 13:26:13 13:27:13 10° 272° (W) 13:27:56 145.865
YUBILEINY 04 Jul 13:27:07 13:30:48 14° 55° (NE) 13:35:06 435.215
Oscar 19 04 Jul 13:42:08 13:46:57 43° 71° (ENE) 13:51:50 437.125/150
SPROUT 04 Jul 13:43:11 13:47:24 58° 100° (E) 13:51:37 437.525
UKube-1 04 Jul 13:44:08 13:46:39 15° 296° (WNW) 13:49:00 .
Gurwin Techsat 1B 04 Jul 13:48:31 13:51:34 16° 62° (ENE) 13:54:50 435.225
50 SAT 04 Jul 13:54:38 13:56:29 13° 294° (WNW) 13:58:10 437.505
ITAMSAT 1 04 Jul 13:55:08 13:58:26 18° 63° (ENE) 14:01:55 435.822/435.867
AISAT 04 Jul 13:59:38 14:02:29 17° 295° (WNW) 14:05:12 437.250
Cosmos 2499 04 Jul 14:02:23 14:06:25 15° 300° (WNW) 14:10:06 435.465 / 435.565
ISS 04 Jul 14:15:02 14:17:45 24° 21° (NNE) 14:20:28 145.825
CUBEBUG 1 04 Jul 14:17:44 14:20:50 19° 294° (WNW) 14:23:48 437.445
TISAT 1 04 Jul 14:25:25 14:29:36 71° 285° (WNW) 14:33:44 437.305
ESTCUBE 1 04 Jul 14:31:53 14:34:03 13° 297° (WNW) 14:36:02 437.505/2401.250
RS-15 04 Jul 14:35:11 14:44:34 27° 256° (WSW) 14:53:39 29.354- 29.394
BEESAT 04 Jul 14:47:27 14:51:40 30° 95° (E) 14:55:55 436.000
AO-7 04 Jul 14:56:56 15:03:02 24° 54° (NE) 15:09:24 29.400- 29.500
PHONESAT 2.4 04 Jul 14:57:32 15:00:32 27° 204° (SSW) 15:03:32 2401.200-2431.200
SWISSCUBE 04 Jul 15:02:45 15:07:25 47° 99° (E) 15:12:02 437.505
ITUPSAT 1 04 Jul 15:08:01 15:12:41 48° 99° (E) 15:17:20 437.325
SPROUT 04 Jul 15:20:55 15:23:03 13° 296° (WNW) 15:25:00 437.525
YUBILEINY 04 Jul 15:21:01 15:29:46 68° 79° (E) 15:38:31 435.215
Oscar 19 04 Jul 15:22:29 15:26:33 22° 268° (W) 15:30:28 437.125/150
Gurwin Techsat 1B 04 Jul 15:25:43 15:31:01 71° 258° (WSW) 15:36:21 435.225
AIST 1 04 Jul 15:31:16 15:33:23 14° 86° (E) 15:35:43
ITAMSAT 1 04 Jul 15:32:18 15:37:28 63° 258° (WSW) 15:42:42 435.822/435.867
JAS-2 04 Jul 15:37:25 15:42:07 38° 69° (ENE) 15:47:06 435.910
Cosmos 2491 04 Jul 15:42:08 15:50:21 47° 89° (E) 15:58:41 435.465 / 435.565
BEESAT 3 04 Jul 15:50:40 15:53:20 17° 42° (NE) 15:56:05 437.485
ISS 04 Jul 15:51:09 15:54:20 57° 220° (SW) 15:57:31 145.825
HORYU 2 04 Jul 16:01:58 16:06:00 37° 71° (ENE) 16:10:06 437.375
BEESAT 2 04 Jul 16:02:43 16:05:31 18° 43° (NE) 16:08:22 435.950
KKS-1 04 Jul 16:02:46 16:06:41 31° 96° (E) 16:10:38 437.445
PCSat 04 Jul 16:20:01 16:25:10 47° 113° (ESE) 16:30:22 145.827
BEESAT 04 Jul 16:25:19 16:29:28 29° 292° (WNW) 16:33:32 436.000
SWISSCUBE 04 Jul 16:41:28 16:44:57 20° 295° (WNW) 16:48:17 437.505
AO-7 04 Jul 16:46:38 16:55:00 84° 253° (WSW) 17:03:26 29.400- 29.500
ITUPSAT 1 04 Jul 16:46:47 16:50:15 19° 295° (WNW) 16:53:34 437.325
STARS 04 Jul 16:54:33 16:58:56 70° 103° (ESE) 17:03:18 437.465
SO-50 04 Jul 17:01:58 17:05:51 27° 113° (ESE) 17:09:56 436.795
AIST 1 04 Jul 17:06:21 17:10:38 50° 282° (WNW) 17:14:57
O/OREOS (USA 219) 04 Jul 17:06:54 17:10:00 18° 54° (NE) 17:13:13 437.305
YUBILEINY 04 Jul 17:19:03 17:25:56 26° 277° (W) 17:32:32 435.215
Cosmos 2504 04 Jul 17:19:35 17:26:38 44° 75° (ENE) 17:34:15 435.465 / 435.565
AIST 2 04 Jul 17:20:47 17:24:22 26° 47° (NE) 17:27:56 435.215
JAS-2 04 Jul 17:23:15 17:27:30 25° 268° (W) 17:31:47 435.910
BEESAT 3 04 Jul 17:27:41 17:31:40 56° 241° (WSW) 17:35:34 437.485
Cosmos 2491 04 Jul 17:39:15 17:47:25 39° 289° (WNW) 17:55:28 435.465 / 435.565
HORYU 2 04 Jul 17:39:28 17:42:48 20° 267° (W) 17:46:01 437.375
KKS-1 04 Jul 17:39:35 17:43:13 25° 292° (WNW) 17:46:46 437.445
BEESAT 2 04 Jul 17:39:55 17:43:55 53° 242° (WSW) 17:47:49 435.950
MOZHAYETS 4 04 Jul 17:56:18 18:00:52 54° 100° (E) 18:05:26
PCSat 04 Jul 18:04:11 18:08:49 28° 312° (NW) 18:13:26 145.827
CUTE-I 04 Jul 18:08:31 18:12:58 28° 66° (ENE) 18:17:32 437.470
STARS 04 Jul 18:33:07 18:34:52 12° 297° (WNW) 18:36:25 437.465
SO-50 04 Jul 18:41:45 18:46:14 39° 311° (NW) 18:50:51 436.795
Cubesat XI-IV 04 Jul 18:41:50 18:47:02 55° 72° (ENE) 18:52:19 437.490
AO-7 04 Jul 18:44:07 18:49:11 16° 273° (W) 18:53:43 29.400- 29.500
O/OREOS (USA 219) 04 Jul 18:45:22 18:49:44 49° 252° (WSW) 18:54:07 437.305
AIST 2 04 Jul 18:59:12 19:02:58 32° 245° (WSW) 19:06:38 435.215
CUSAT 1 04 Jul 19:05:06 19:06:01 11° 69° (ENE) 19:07:01 437.405
HO-68 04 Jul 19:07:25 19:08:28 10° 49° (NE) 19:09:57 435.675
